Flag for Canada Weather past 2 weeks in Dryden, Ontario, Canada

Now
75 °F

Light rain. Mostly cloudy.


Feels Like: 76 °F
Forecast: 68 / 80 °F
Wind: 14 mph from South

Location: Dryden Airport

Current Time: Jul 28, 2015 at 1:17:50 PM

Latest Report: Jul 28, 2015 at 12:00 PM


Visibility: 9 mi

Pressure: 29.74 "Hg

Humidity: 78%

Dew point: 68 °F

Location of DrydenLocation

Historic Weather in Dryden — Graph

°F

Dryden temperature yesterday

Maximum temperature yesterday: 88 °F (at 2:00 PM)
Minimum temperature yesterday: 68 °F (at 2:00 AM)
Average temperature yesterday: 78 °F

Past Weeks' High & Low Weather Summary

 TemperatureHumidityPressure
High88 °F (Jul 27, 2:00 PM)100% (Jul 17, 1:02 AM)29.98 "Hg (Jul 17, 1:02 AM)
Low50 °F (Jul 21, 6:00 AM)31% (Jul 14, 2:00 PM)29.50 "Hg (Jul 19, 7:00 PM)
Average69 °F73%29.80 "Hg
* Reported Jul 13 12:00 Noon — Jul 28 12:00 Noon, Dryden, Weather by CustomWeather, © 2015

Note: Actual official high and low records may vary slightly from our data, if they occured in-between our weather recording intervals... More about our weather records

Advertising

Dryden weather history for previous 24 hours

 ConditionsComfort  
Time TempWeatherWind HumidityBarometerVisibility
12:00 PM
Tue, Jul 28
75 °FLight rain. Mostly cloudy.14 mph78%29.74 "Hg9 mi
11:00 AM77 °FPartly sunny.17 mph69%29.73 "Hg9 mi
10:00 AM75 °FPartly sunny.16 mph74%29.73 "Hg9 mi
9:00 AM73 °FSunny.15 mph78%29.74 "Hg9 mi
8:00 AM72 °FPassing clouds.12 mph78%29.77 "Hg9 mi
7:00 AM70 °FSunny.12 mph78%29.78 "Hg9 mi
6:00 AM70 °FSunny.9 mph78%29.80 "Hg9 mi
5:00 AM70 °FClear.10 mph78%29.81 "Hg9 mi
4:00 AM70 °FClear.9 mph78%29.83 "Hg9 mi
3:00 AM72 °FClear.9 mph78%29.84 "Hg9 mi
2:00 AM73 °FClear.9 mph74%29.86 "Hg9 mi
1:00 AM73 °FClear.8 mph74%29.89 "Hg9 mi
12:00 AM75 °FClear.8 mph65%29.89 "Hg9 mi
11:00 PM
Mon, Jul 27
75 °FClear.2 mph69%29.89 "Hg9 mi
10:00 PM79 °FClear.3 mph58%29.90 "Hg9 mi
9:00 PM81 °FClear.5 mph54%29.89 "Hg9 mi
8:00 PM84 °FSunny.5 mph48%29.88 "Hg9 mi
7:00 PM86 °FSunny.8 mph43%29.89 "Hg9 mi
6:00 PM88 °FSunny.12 mph35%29.89 "Hg9 mi
5:00 PM88 °FSunny.10 mph33%29.89 "Hg9 mi
4:00 PM86 °FSunny.12 mph38%29.92 "Hg9 mi
3:00 PM88 °FSunny.13 mph35%29.92 "Hg9 mi
2:00 PM88 °FSunny.13 mph40%29.92 "Hg9 mi
1:00 PM86 °FSunny.14 mph46%29.93 "Hg9 mi
Weather by CustomWeather, © 2015

See weather overviewHow to use our weather pages